Regional Weather Roundup
Issued by NWS Goodland, KS

Home | Current Version | Previous Version | Graphics & Text | Print | Product List | Glossary On
Versions: 1 2 3 4 5 6 7 8 9 10 11 12 13 14 15 16 17 18 19 20 21 22 23 24 25 26 27 28 29 30 31 32 33 34 35 36 37 38 39 40 41 42 43 44 45 46 47 48 49 50
000
ASUS43 KGLD 011908
RWRGLD

GOODLAND FORECAST AREA HOURLY WEATHER ROUNDUP
NATIONAL WEATHER SERVICE GOODLAND KS
100 PM MDT WED JUL 01 2015

...OFFICIAL OBSERVATIONS...

CITY           SKY/WX    TMP DP  RH WIND       PRES   REMARKS
GOODLAND KS    SUNNY     94  53  25 NE16      30.00S
HILL CITY KS   SUNNY     96  64  34 N16G22    29.89S
IMPERIAL NEB   SUNNY     95  59  30 N9        29.98S
MCCOOK NEB     SUNNY     95  57  27 NE14      29.92R
AKRON CO       SUNNY     89  52  28 NE12G17   30.10S
BURLINGTON CO  SUNNY     93  50  23 N15       30.05S
LIMON CO       SUNNY     86  53  32 NE7       30.16S
$$

...UNOFFICIAL OBSERVATIONS...

CITY           SKY/WX    TMP DP  RH WIND       PRES   REMARKS
COLBY KS       SUNNY     97  54  23 N17G26    29.96S
GOVE KS          N/A     96  32  10 MISG        N/A
NORTON KS      SUNNY     88  61  40 NE10      29.90S
SHARON SPRINGS   N/A     95  58  28 N12G20      N/A
KIT CARSON CO    N/A     92  56  29 MISG        N/A
$$



USA.gov is the U.S. government's official web portal to all federal, state and local government web resources and services.